STARLINK-32270, 60364

Orbit data source: Space-Track

STARLINK-32270, 60364 is a payload satellite owned by SpaceX/Seattle (US) in LEO that was launched on Sun, 04 Aug 2024 UTC via an FALCON 9 launch vehicle from the Air Force Western Test Range (AFWTR). Payload-class satellites include a variety of spacecraft equipped with specific instruments for various scientific and technological missions. These include communications satellites like Starlink; space stations such as the ISS; scientific satellites like the Hubble; Earth observation satellites from companies like Planet Labs, Umbra, and HawkEye 360; GPS; miniature CubeSats for education and research; and military/defense satellites.

Loading next visibility...
Identifier
60364, 2024-138K
Orbit
LEO
Country
Flag of USUS
Related business
Manufacturer
SpaceX/Seattle
Mission
Operational Commercial Communications
Bus & Motor
STARLINK V2M, Unknown motor
Mass
730 kg wet, ~700 kg dry
Launch date (UTC)
2024-08-04 (1 year ago)
Launch vehicle
FALCON 9
Launch site
Air Force Western Test Range (AFWTR)
Object type
Payload
Rocket body
Debris
Shape & HBR
Box + 2 Pan, 14.5 m
Radar Cross Section
33.884 m², Large (>1 m²)

Expand to show TLE details & history
Last TLE update: 8 hours ago

TLE from 8 hours ago
0 STARLINK-32270
1 60364U 24138K   25258.56518033  .00000150  00000-0  17174-4 0  9990
2 60364  53.1609  43.1543 0001008  73.4988 286.6123 15.30197987 63718
Epoch: 2025-09-15T13:33Z
TLE epoch observation values (Epoch: 2025-09-15T13:33:51.58Z)
Latitude
-0.00006°
Longitude
-155.07867°
Altitude
475.923 km
Speed
7.629 km/s
True Right ascension
02h 52m 37s
True Declination
0° 00' 00"
Sunlit
Object was in full shadow at epoch
Visualization orbit readout
Latitude
Unknown
Longitude
Unknown
Altitude
Unknown
Speed
Unknown
Apparent Right ascension
Unknown
Apparent Declination
Unknown
Sunlit
N/A
Visualization observer readout
Local Sidereal Time
13:52:23
Azimuth
Unknown
Elevation
Unknown
Doppler factor
Unknown
Orbital elements
Apogee altitude
476.168 km
Perigee altitude
474.787 km
Semi-major axis
6,853.614 km
Eccentricity
0.0001
Inclination
53.1609°
RAAN
43.1543°
Arg. of periapsis
73.4988°
True anomaly
286.60123°
Mean anomaly
286.6123°
Eccentric anomaly
286.60677°
Mean motion
3.82528 °/min
Orbital period
94.11 mins
BSTAR
0.000017174
Loading maneuver chart data...
Computing Atmospheric mass density...
Loading historical data...
Loading historical data...
Loading historical data...
Loading historical data...
Loading historical data...
Loading historical data...
Loading historical data...

Documentation

Showing up to 5 results
|